星链-33985 (STARLINK-33985)

导读

STARLINK-33985是一颗由美国发射的星链卫星,发射于2025年5月13日,属于SpaceX公司星链星座项目。星链项目旨在构建全球卫星互联网星座,为全球提供高速低延迟宽带服务,这颗卫星加入后进一步扩充了星链星座的在轨规模,提升星座覆盖与服务能力。

基本信息
目录编号:
63943
目录名称:
STARLINK-33985
国际标识:
2025-098T
轨道中心:
EARTH
卫星名称:
星链-33985
卫星全名:
星链-33985 (STARLINK-33985)
卫星状态:
在轨 (已飞行480 天)
发射日期:
2025-05-13 UTC
国别 :
美国 (US)
星等 :
--
轨道信息
数据来源 国际轨道数据
星历时间: 2026-09-05T22:00:02+0800
6小时前
查看轨道信息
半长轴: 6877.204km
偏心率: 0.0002995
轨道倾角: 70.002°
近地点辐角 255.216°
升交点赤经 180.449°
平近点角 309.205°
近地点: 497.007km
远地点: 501.127km
周期: 94.597分钟
每日圈数: 15.222465
详细信息
固有亮度:
5
最大亮度:
2.5
卫星平台:
Starlink V1.0
覆盖范围:
全球
运营商:
太空探索技术公司
运营商所在国:
美国
制造商(研发单位):
太空探索技术公司
制造商所在国:
美国
使用方式:
暂无
卫星简介
Starlink 计划是 SpaceX 推出的全球卫星互联网项目,通过发射低轨道卫星,为全球尤其是偏远地区提供高速、低延迟的互联网服务。自 2019 年起,Starlink 已部署数千颗卫星,旨在缩小全球数字鸿沟,推动互联网普及。该项目还为军事、航空等行业提供通信支持,带来广泛经济效益。
2D轨道图
3D轨道图
轨道高度分析图
轨道倾角分析图
轨道综合分析图
查看轨道综合分析图
交会数据列表
事件ID 空间交会对象 最接近时刻(TCA) 交会距离 交会风险概率(CRP) 交会风险指数(CRI) 操作
CDM_260906-224904-608306-394321
2026-09-06T
22:49:09+0000
1.134 km
极远距离
1.620674E-5 中风险 0.59
CDM_260906-102306-394306-718921
2026-09-06T
10:23:05+0000
1.730 km
极远距离
3.865929E-6 低风险 0.47
CDM_260907-170905-350206-394321
2026-09-07T
17:09:57+0000
1.844 km
极远距离
3.567727E-6 低风险 0.46
CDM_260906-211504-608306-394321
2026-09-06T
21:15:09+0000
2.139 km
极远距离
2.263701E-6 低风险 0.42
CDM_260906-084806-394306-718921
2026-09-06T
08:48:53+0000
2.674 km
极远距离
1.431056E-6 低风险 0.38
CDM_260907-065805-235006-394321
2026-09-07T
06:58:04+0000
2.413 km
极远距离
1.412258E-6 低风险 0.38
CDM_260907-051605-922106-394321
2026-09-07T
05:16:51+0000
2.961 km
极远距离
1.25948E-6 低风险 0.37
CDM_260906-072306-311806-394321
2026-09-06T
07:23:00+0000
2.858 km
极远距离
1.161391E-6 低风险 0.36
CDM_260907-091505-943006-394321
2026-09-07T
09:15:22+0000
2.386 km
极远距离
8.042439E-7 极低风险 0.33